Location: North Evanston
(42.0634°N, 87.6976°W)
Time: 20:51:09
(UTC+00:00)

Transit 2A - Pass Details

Date: 19 May 2026
Orbit: 595 x 948 km, 66.7° (Epoch: 9 June)

Event Time Altitude Azimuth Distance (km) Brightness Sun altitude
Rises 19:34:18 0° 185° (S) 3,593 9.8 58.4°
Reaches altitude 10° 19:37:02 10° 178° (S) 2,635 9.2 58.0°
Maximum altitude 19:42:41 39° 112° (ESE) 1,331 7.5 57.1°
Drops below altitude 10° 19:48:02 10° 46° (NE) 2,497 8.4 56.3°
Sets 19:50:33 0° 38° (NE) 3,384 9.0 55.9°
